TimeCST,TemperatureF,Dew PointF,Humidity,Sea Level PressureIn,VisibilityMPH,Wind Direction,Wind SpeedMPH,Gust SpeedMPH,PrecipitationIn,Events,Conditions,WindDirDegrees,DateUTC
12:15 AM,30.9,17.6,58,30.02,10.0,SSE,11.5,-,N/A,,Clear,160,2013-02-08 06:15:00
12:35 AM,30.2,16.7,57,30.02,10.0,SSE,11.5,-,N/A,,Clear,160,2013-02-08 06:35:00
12:55 AM,31.1,16.2,54,30.01,10.0,SSE,11.5,-,N/A,,Clear,160,2013-02-08 06:55:00
1:15 AM,29.3,15.8,57,30.01,10.0,SSE,9.2,-,N/A,,Clear,160,2013-02-08 07:15:00
1:35 AM,27.5,15.8,61,29.99,10.0,South,10.4,-,N/A,,Clear,170,2013-02-08 07:35:00
2:15 AM,27.5,16.9,64,29.98,10.0,South,12.7,-,N/A,,Clear,180,2013-02-08 08:15:00
2:35 AM,31.1,18.0,58,29.97,10.0,South,16.1,-,N/A,,Clear,180,2013-02-08 08:35:00
2:55 AM,32.0,17.8,56,29.97,10.0,South,18.4,24.2,N/A,,Clear,190,2013-02-08 08:55:00
3:35 AM,27.3,16.7,64,29.96,10.0,South,11.5,-,N/A,,Clear,190,2013-02-08 09:35:00
3:55 AM,28.0,17.6,65,29.95,10.0,South,11.5,-,N/A,,Clear,190,2013-02-08 09:55:00
4:15 AM,26.6,17.2,68,29.94,10.0,SSW,10.4,-,N/A,,Clear,200,2013-02-08 10:15:00
4:35 AM,25.5,16.7,69,29.94,10.0,South,8.1,-,N/A,,Clear,190,2013-02-08 10:35:00
4:55 AM,24.8,16.7,71,29.94,10.0,South,6.9,-,N/A,,Clear,190,2013-02-08 10:55:00
5:15 AM,24.4,16.5,72,29.94,10.0,SW,3.5,-,N/A,,Clear,220,2013-02-08 11:15:00
5:35 AM,24.4,16.7,72,29.92,10.0,South,9.2,-,N/A,,Clear,190,2013-02-08 11:35:00
5:55 AM,23.7,16.7,75,29.91,10.0,South,10.4,-,N/A,,Clear,190,2013-02-08 11:55:00
6:15 AM,23.7,16.7,75,29.92,10.0,SSW,9.2,-,N/A,,Clear,200,2013-02-08 12:15:00
6:35 AM,23.5,16.7,75,29.92,10.0,SSW,9.2,-,N/A,,Clear,200,2013-02-08 12:35:00
6:55 AM,21.9,15.6,77,29.92,10.0,SSW,5.8,-,N/A,,Clear,210,2013-02-08 12:55:00
7:15 AM,19.8,14.7,81,29.92,10.0,WSW,9.2,-,N/A,,Clear,250,2013-02-08 13:15:00
7:35 AM,18.1,13.8,83,29.93,10.0,West,9.2,-,N/A,,Clear,260,2013-02-08 13:35:00
7:55 AM,18.0,14.2,85,29.94,10.0,WNW,8.1,-,N/A,,Clear,290,2013-02-08 13:55:00
8:15 AM,16.7,13.1,86,29.94,10.0,WNW,8.1,-,N/A,,Clear,300,2013-02-08 14:15:00
8:35 AM,18.5,14.7,85,29.94,10.0,NW,4.6,-,N/A,,Clear,310,2013-02-08 14:35:00
8:55 AM,22.1,17.1,81,29.93,10.0,West,5.8,-,N/A,,Clear,280,2013-02-08 14:55:00
9:15 AM,24.8,18.3,76,29.94,10.0,Calm,Calm,-,N/A,,Clear,0,2013-02-08 15:15:00
9:35 AM,28.6,20.3,71,29.94,10.0,West,9.2,-,N/A,,Clear,280,2013-02-08 15:35:00
9:55 AM,29.5,20.8,70,29.92,10.0,WSW,5.8,-,N/A,,Clear,250,2013-02-08 15:55:00
10:15 AM,32.0,21.9,66,29.91,10.0,WSW,4.6,-,N/A,,Clear,250,2013-02-08 16:15:00
10:35 AM,34.7,22.6,61,29.90,10.0,SW,3.5,-,N/A,,Clear,220,2013-02-08 16:35:00
10:55 AM,38.5,22.6,53,29.89,10.0,Calm,Calm,-,N/A,,Clear,0,2013-02-08 16:55:00
11:15 AM,42.1,21.4,44,29.88,10.0,Calm,Calm,-,N/A,,Clear,0,2013-02-08 17:15:00
11:35 AM,45.9,21.7,38,29.87,10.0,SE,5.8,-,N/A,,Clear,140,2013-02-08 17:35:00
11:55 AM,48.6,12.7,24,29.87,10.0,East,8.1,-,N/A,,Clear,80,2013-02-08 17:55:00
12:15 PM,50.2,14.4,24,29.86,10.0,East,9.2,-,N/A,,Clear,100,2013-02-08 18:15:00
12:35 PM,50.7,10.4,20,29.86,10.0,ESE,6.9,-,N/A,,Clear,120,2013-02-08 18:35:00
12:55 PM,50.2,12.0,22,29.85,10.0,SSE,11.5,-,N/A,,Clear,150,2013-02-08 18:55:00
1:15 PM,47.5,19.2,33,29.83,10.0,SE,12.7,-,N/A,,Clear,140,2013-02-08 19:15:00
1:35 PM,45.9,19.4,35,29.83,10.0,SE,11.5,-,N/A,,Clear,140,2013-02-08 19:35:00
1:55 PM,45.0,18.3,35,29.82,10.0,SE,11.5,-,N/A,,Clear,140,2013-02-08 19:55:00
2:15 PM,45.5,18.3,34,29.81,10.0,SE,10.4,-,N/A,,Clear,140,2013-02-08 20:15:00
2:35 PM,46.8,17.4,31,29.80,10.0,SSE,12.7,-,N/A,,Clear,150,2013-02-08 20:35:00
2:55 PM,48.7,16.0,27,29.79,10.0,SE,12.7,-,N/A,,Clear,130,2013-02-08 20:55:00
3:15 PM,49.6,17.8,28,29.77,10.0,SE,12.7,18.4,N/A,,Clear,140,2013-02-08 21:15:00
3:35 PM,50.0,18.7,29,29.76,10.0,SSE,12.7,18.4,N/A,,Clear,150,2013-02-08 21:35:00
3:55 PM,50.2,18.9,29,29.75,10.0,SSE,15.0,-,N/A,,Clear,160,2013-02-08 21:55:00
4:15 PM,50.4,19.4,30,29.75,10.0,SSE,15.0,-,N/A,,Clear,150,2013-02-08 22:15:00
4:35 PM,49.6,18.7,29,29.75,10.0,SSE,12.7,-,N/A,,Clear,150,2013-02-08 22:35:00
4:55 PM,49.1,19.0,30,29.74,10.0,SSE,12.7,-,N/A,,Clear,150,2013-02-08 22:55:00
5:15 PM,48.6,19.4,32,29.74,10.0,SSE,10.4,-,N/A,,Clear,150,2013-02-08 23:15:00
5:35 PM,47.1,19.2,33,29.74,10.0,SE,8.1,-,N/A,,Clear,140,2013-02-08 23:35:00
5:55 PM,44.1,19.2,37,29.73,10.0,Calm,Calm,-,N/A,,Clear,0,2013-02-08 23:55:00
6:15 PM,41.2,19.0,41,29.73,10.0,ESE,4.6,-,N/A,,Clear,120,2013-02-09 00:15:00
6:35 PM,35.8,18.3,49,29.73,10.0,Calm,Calm,-,N/A,,Clear,0,2013-02-09 00:35:00
6:55 PM,35.8,18.3,49,29.73,10.0,Calm,Calm,-,N/A,,Clear,0,2013-02-09 00:55:00
7:15 PM,33.6,18.0,53,29.72,10.0,Calm,Calm,-,N/A,,Clear,0,2013-02-09 01:15:00
7:35 PM,33.8,17.4,51,29.72,10.0,NE,3.5,-,N/A,,Clear,40,2013-02-09 01:35:00
7:55 PM,31.8,17.6,56,29.71,10.0,NNE,5.8,-,N/A,,Clear,20,2013-02-09 01:55:00
8:15 PM,32.0,18.9,58,29.70,10.0,North,5.8,-,N/A,,Clear,360,2013-02-09 02:15:00
8:35 PM,30.2,17.4,59,29.70,10.0,NE,6.9,-,N/A,,Clear,40,2013-02-09 02:35:00
8:55 PM,31.1,17.8,58,29.70,10.0,NE,5.8,-,N/A,,Clear,50,2013-02-09 02:55:00
9:15 PM,29.5,17.1,60,29.69,10.0,ENE,6.9,-,N/A,,Clear,60,2013-02-09 03:15:00
9:35 PM,29.8,17.8,61,29.69,10.0,NE,5.8,-,N/A,,Clear,50,2013-02-09 03:35:00
9:55 PM,31.6,18.7,59,29.68,10.0,ENE,4.6,-,N/A,,Clear,60,2013-02-09 03:55:00
10:15 PM,30.7,18.7,61,29.68,10.0,Calm,Calm,-,N/A,,Clear,0,2013-02-09 04:15:00
10:35 PM,27.1,17.4,67,29.68,10.0,East,3.5,-,N/A,,Clear,100,2013-02-09 04:35:00
10:55 PM,28.6,17.8,64,29.68,10.0,Calm,Calm,-,N/A,,Clear,0,2013-02-09 04:55:00
11:15 PM,25.0,16.9,71,29.67,10.0,Calm,Calm,-,N/A,,Clear,0,2013-02-09 05:15:00
11:35 PM,29.7,19.2,65,29.66,10.0,SSW,3.5,-,N/A,,Clear,210,2013-02-09 05:35:00
11:55 PM,29.7,18.9,64,29.66,10.0,SSW,6.9,-,N/A,,Clear,210,2013-02-09 05:55:00